Location: Newark
(48.9711°N, 7.9892°E)
Time: 14:02:28
(UTC+00:00)

OTV 5 (USA 277) - Visible Passes

Search period start: 16 October 2019 00:00
Search period end: 26 October 2019 00:00
Orbit: 310 x 324 km, 54.5° (Epoch: 08 October)

Date Brightness Start Highest point End Pass type
(mag) Time Alt. Az. Time Alt. Az. Time Alt. Az.
16 Oct ? 04:07:19 38° N 04:07:47 42° NNE 04:10:26 10° E visible
17 Oct ? 04:21:38 42° NW 04:22:25 78° NNE 04:25:09 10° ESE visible
18 Oct ? 04:36:01 31° W 04:36:57 46° SW 04:39:35 10° SE visible
19 Oct ? 03:19:36 13° ESE 03:19:36 13° ESE 03:19:56 10° ESE visible
19 Oct ? 04:50:31 18° WSW 04:51:21 21° SW 04:53:30 10° S visible
20 Oct ? 03:34:13 12° SE 03:34:13 12° SE 03:34:32 10° SE visible
